Regional Weather Roundup
Issued by NWS Upton, NY

Current Version | Previous Version | Graphics & Text | Print | Product List | Glossary Off
Versions: 1 2 3 4 5 6 7 8 9 10 11 12 13 14 15 16 17 18 19 20 21 22 23 24 25 26 27 28 29 30 31 32 33 34 35 36 37 38 39 40 41 42 43 44 45 46 47 48 49 50

767
ASUS41 KOKX 240907
RWROKX

REGIONAL WEATHER ROUNDUP
NATIONAL WEATHER SERVICE NEW YORK NY
500 AM EDT FRI MAR 24 2017

NOTE: "FAIR" INDICATES FEW OR NO CLOUDS BELOW 12,000 FEET WITH NO
SIGNIFICANT WEATHER AND/OR OBSTRUCTIONS TO VISIBILITY.

NYZ071-072-176-178-NJZ106-104-241000-
NEW YORK CITY METRO AREA

CITY           SKY/WX    TMP DP  RH WIND       PRES   REMARKS
Central Park   MOCLDY    37  16  42 VRB6      30.49F WCI  32
Wall St Helipt MOSUNNY   36  21  55 SW7       30.50F WCI  30
LaGuardia APRT MOCLDY    38  16  40 S9        30.48F WCI  31
Kennedy INTL   CLOUDY    33  24  69 SW10      30.51R WCI  25
Breezy Point     N/A     34 N/A N/A SW8         N/A  WCI  27
Newark/Liberty MOCLDY    32  21  64 SW9       30.49S WCI  24
Teterboro      CLOUDY    33  19  56 VRB7      30.46F WCI  27
$$

NYZ177-179-078>081-241000-
LONG ISLAND NEW YORK

CITY           SKY/WX    TMP DP  RH WIND       PRES   REMARKS
Jones Beach      N/A     36 N/A N/A SW9G15      N/A  WCI  29
Matinecock PT  NOT AVBL
Farmingdale    CLOUDY    33  23  66 SW8       30.49F WCI  26
MacArthur/ISP  CLOUDY    34  27  75 SW8       30.49F WCI  27
Shirley        PTCLDY    25  20  81 CALM      30.51F
Westhampton    PTCLDY    16  10  77 CALM      30.52F
East Hampton     N/A     18  12  80 CALM      30.50F
Montauk          N/A     31  24  75 CALM      30.50F
$$

NYZ052-065-067-241000-
HUDSON VALLEY

CITY           SKY/WX    TMP DP  RH WIND       PRES   REMARKS
White Plains   CLOUDY    30  24  78 S3        30.44F
Newburgh       MOCLDY    28  19  69 CALM      30.45F
Montgomery     CLOUDY    27  18  69 CALM      30.43F
Poughkeepsie   CLOUDY    27  18  69 CALM      30.44F
Albany         CLOUDY    30   8  39 S8        30.40F WCI  22
$$

NJZ001-105-106-008-010-013-015-019>022-104-241000-
NEW JERSEY

CITY           SKY/WX    TMP DP  RH WIND       PRES   REMARKS
Newark/Liberty MOCLDY    32  21  64 SW9       30.49S WCI  24
Teterboro      CLOUDY    33  19  56 VRB7      30.46F WCI  27
Caldwell       PTCLDY    27  16  63 W3        30.48F
Somerville     CLOUDY    23  17  78 CALM      30.48R
Linden           N/A     32  21  62 CALM      30.50S
Sussex         CLOUDY    24  16  71 CALM      30.43S
Andover          N/A     26  19  74 CALM      30.44S
Trenton        CLOUDY    29  22  75 S5        30.48R WCI  24
Millville      PTCLDY    26  23  88 CALM      30.50S
Atlantic City  PTCLDY    34  28  79 SW3       30.50F
Wrightstown    CLOUDY    27  22  81 SW3       30.48R
Toms River     PTCLDY    25  21  85 CALM      30.52R
Belmar         NOT AVBL
$$

PAZ047>061-062-071-241000-
EASTERN PENNSYLVANIA

CITY           SKY/WX    TMP DP  RH WIND       PRES   REMARKS
Philadelphia   CLOUDY    33  23  66 S7        30.51R WCI  27
Allentown      CLOUDY    30  16  56 SW7       30.47R WCI  23
Scranton       CLOUDY    34  13  41 SW5       30.36F WCI  30
$$

CTZ002-004>006-009-010-012-RIZ004-006-007-MAZ004-011-015-241000-
SOUTHERN NEW ENGLAND
 IN CT

CITY           SKY/WX    TMP DP  RH WIND       PRES   REMARKS
Bradley INTL   CLOUDY    27  15  61 S3        30.47F
Hartford       CLOUDY    28  15  58 CALM      30.48F
Danbury        CLOUDY    26  17  68 CALM      30.46F
Wtrbury/Oxford CLOUDY    30  19  64 S5        30.45S WCI  25
Bridgeport     CLOUDY    29  20  69 CALM      30.48F
Meriden        PTCLDY    26  17  68 CALM      30.48F
New Haven      PTCLDY    25  18  74 N5        30.49F WCI  19
Chester        NOT AVBL
Groton         CLOUDY    24  14  65 CALM      30.49F
Wilimantic     CLOUDY    25  15  66 CALM      30.49F

 IN RI

CITY           SKY/WX    TMP DP  RH WIND       PRES   REMARKS
Providence     CLOUDY    27   6  41 CALM      30.50F
Block Island   CLOUDY    31  24  75 SW5       30.51F WCI  26
Westerly       PTCLDY    23  18  81 CALM      30.51F
 IN MA

CITY           SKY/WX    TMP DP  RH WIND       PRES   REMARKS
Boston         CLOUDY    29  13  51 S5        30.50F WCI  24
Worcester      CLOUDY    25   6  44 SW5       30.42F WCI  19
Westfield      CLOUDY    26  12  55 CALM      30.45F
Provincetown   CLOUDY    27  15  61 S3        30.52F
Nantucket      PTCLDY    28  15  58 NW3       30.52F
$$

ANZ330-335-338-340-345-350-353-355-241000-
COASTAL MARINE OBSERVATIONS


STATION/POSITION TIME  SKY/WX   TEMP    WIND        PRES    VSBY  WAVE
                                AIR SEA DIR/SP/G                  HT/PER
                 (UTC)          (F)     (DEG/KT/KT) (MB)    (MI)  (FT/S)
NY HARB ENTRANCE 0750            37 41  230/ 14/ 16 1033.4          2/ 4
20 S FIRE ISLAND 0850            39 40  220/ 12/ 14 1032.8          2/ 4
GREAT SOUTH BAY  NOT AVBL
23 SSW MONTAUK P 0750            39 42              1034.2          2/ 4
15 E BARNEGAT LI 0830               42                N/A           3/ 4
HUDSON CANYON    0750            41 44  220/ 10/ 12 1034.7          2/ 4
KINGS POINT      0848            36 38              1031.9
EXECUTION ROCKS  NOT AVBL
CENTRAL LI SOUND 0830            37     200/ 10/ 12   N/A           0
EASTERN LI SOUND NOT AVBL
ROBBINS REEF     0848            35     170/  5/  6 1032.8
$$


>>>>>>>>>>>>>>>>>>>>>>>>>>>> KEY <<<<<<<<<<<<<<<<<<<<<<<<<<<
>                                                          <
>     SKY/WX - Sky Condition/Present Weather               <
>     TMP    - Temperature in Fahrenheit                   <
>     DP     - Dew Point in Fahrenheit                     <
>     RH     - Relative Humidity in Percent                <
>     WIND   - Direction (from) and Speed in MPH           <
>     PRES   - Mean Sea Level Pressure (inches of Hg)      <
>     WCI    - Wind Chill Index                            <
>     VSB    - VISIBILITY IN MILES                         <
>     HX     - HEAT INDEX                                  <
>     TC     - TEMPERATURE IN CELSIUS                      <
>     VRB    - VARIABLE WIND DIRECTION                     <
>                                                          <
>>>>>>>>>>>>>>>>>>>>>>>>>>>> KEY <<<<<<<<<<<<<<<<<<<<<<<<<<<




USA.gov is the U.S. government's official web portal to all federal, state and local government web resources and services.